,,PA_Meas_PMT16A,,PR_Meas_QMR101_102,,RH_Meas_QMH101,,SR_Meas_QMS101,,TA_Meas_QMH101,,GenWind,,GenWind,
time,status,PA,status,PR,status,RH,status,SR,status,TA,status,DirAvg,status,SpdAvg,
2011-02-06, 00:00:04,VALID,917.721,VALID,0,VALID,96.7411,VALID,0,VALID,19.3113,VALID,142,VALID,1.05156,
2011-02-06, 00:01:04,VALID,917.7,VALID,0,VALID,96.7564,VALID,0,VALID,19.2514,VALID,142,VALID,0.982422,
2011-02-06, 00:02:04,VALID,917.673,VALID,0,VALID,96.7945,VALID,0,VALID,19.3518,VALID,141,VALID,0.808984,
2011-02-06, 00:03:04,VALID,917.647,VALID,0,VALID,96.8021,VALID,0,VALID,19.3323,VALID,142,VALID,1.11016,
2011-02-06, 00:04:04,VALID,917.649,VALID,0,VALID,96.8174,VALID,0,VALID,19.3338,VALID,143,VALID,1.44023,
2011-02-06, 00:05:04,VALID,917.614,VALID,0,VALID,96.8021,VALID,0,VALID,19.2918,VALID,141,VALID,1.18203,
2011-02-06, 00:06:04,VALID,917.612,VALID,0,VALID,96.8021,VALID,0,VALID,19.2918,VALID,131,VALID,1.36836,
2011-02-06, 00:07:04,VALID,917.598,VALID,0,VALID,96.8174,VALID,0,VALID,19.2933,VALID,127,VALID,0.951953,
2011-02-06, 00:08:04,VALID,917.587,VALID,0,VALID,96.8098,VALID,0,VALID,19.3772,VALID,144,VALID,0.434375,
2011-02-06, 00:09:04,VALID,917.578,VALID,0,VALID,96.8174,VALID,0,VALID,19.2723,VALID,161,VALID,1.0668,
2011-02-06, 00:10:04,VALID,917.591,VALID,0,VALID,96.8098,VALID,0,VALID,19.2514,VALID,148,VALID,1,
2011-02-06, 00:11:04,VALID,917.566,VALID,0,VALID,96.825,VALID,0,VALID,19.3143,VALID,149,VALID,0.382031,
2011-02-06, 00:12:04,VALID,917.545,VALID,0,VALID,96.825,VALID,0,VALID,19.2319,VALID,149,VALID,0.765625,
2011-02-06, 00:13:04,VALID,917.541,VALID,0,VALID,96.7945,VALID,0,VALID,19.2948,VALID,149,VALID,0.445703,
2011-02-06, 00:14:04,VALID,917.546,VALID,0,VALID,96.825,VALID,0,VALID,19.2334,VALID,149,VALID,0.369531,
2011-02-06, 00:15:04,VALID,917.539,VALID,0,VALID,96.8403,VALID,0,VALID,19.2319,VALID,149,VALID,0.0777344,
2011-02-06, 00:16:04,VALID,917.529,VALID,0,VALID,96.8403,VALID,0,VALID,19.2753,VALID,149,VALID,0.386328,
2011-02-06, 00:17:04,VALID,917.554,VALID,0,VALID,96.825,VALID,0,VALID,19.2334,VALID,149,VALID,0.459375,
2011-02-06, 00:18:04,VALID,917.55,VALID,0,VALID,96.8098,VALID,0,VALID,19.1944,VALID,149,VALID,0.252734,
2011-02-06, 00:19:04,VALID,917.568,VALID,0,VALID,96.8021,VALID,0,VALID,19.2348,VALID,149,VALID,0.0644531,
2011-02-06, 00:20:04,VALID,917.517,VALID,0,VALID,96.8174,VALID,0,VALID,19.2153,VALID,149,VALID,0.553516,
2011-02-06, 00:21:04,VALID,917.546,VALID,0,VALID,96.825,VALID,0,VALID,19.2363,VALID,149,VALID,0.641016,
2011-02-06, 00:22:04,VALID,917.515,VALID,0,VALID,96.7945,VALID,0,VALID,19.2168,VALID,149,VALID,0.5875,
2011-02-06, 00:23:04,VALID,917.502,VALID,0,VALID,96.7945,VALID,0,VALID,19.1749,VALID,149,VALID,0.544531,
2011-02-06, 00:24:04,VALID,917.518,VALID,0,VALID,96.825,VALID,0,VALID,19.1973,VALID,149,VALID,0.750781,
2011-02-06, 00:25:04,VALID,917.492,VALID,0,VALID,96.8174,VALID,0,VALID,19.1554,VALID,149,VALID,0.820703,
2011-02-06, 00:26:04,VALID,917.492,VALID,0,VALID,96.825,VALID,0,VALID,19.2182,VALID,149,VALID,0.441406,
2011-02-06, 00:27:04,VALID,917.444,VALID,0,VALID,96.8021,VALID,0,VALID,19.1763,VALID,149,VALID,0.49375,
2011-02-06, 00:28:04,VALID,917.427,VALID,0,VALID,96.7869,VALID,0,VALID,19.1568,VALID,149,VALID,0.455859,
2011-02-06, 00:29:04,VALID,917.408,VALID,0,VALID,96.7869,VALID,0,VALID,19.1973,VALID,149,VALID,0.326953,
2011-02-06, 00:30:04,VALID,917.403,VALID,0,VALID,96.7869,VALID,0,VALID,19.1763,VALID,149,VALID,0.332422,
2011-02-06, 00:31:04,VALID,917.422,VALID,0,VALID,96.7793,VALID,0,VALID,19.2168,VALID,149,VALID,0.367188,
2011-02-06, 00:32:04,VALID,917.416,VALID,0,VALID,96.7869,VALID,0,VALID,19.2348,VALID,149,VALID,0.453906,
2011-02-06, 00:33:04,VALID,917.411,VALID,0,VALID,96.7411,VALID,0,VALID,19.2558,VALID,149,VALID,0.501562,
2011-02-06, 00:34:04,VALID,917.389,VALID,0,VALID,96.703,VALID,0,VALID,19.2348,VALID,149,VALID,0.541016,
2011-02-06, 00:35:04,VALID,917.407,VALID,0,VALID,96.7107,VALID,0,VALID,19.2153,VALID,149,VALID,0.455078,
2011-02-06, 00:36:04,VALID,917.38,VALID,0,VALID,96.7107,VALID,0,VALID,19.1958,VALID,149,VALID,0.00585938,
2011-02-06, 00:37:04,VALID,917.38,VALID,0,VALID,96.7183,VALID,0,VALID,19.2363,VALID,149,VALID,0,
2011-02-06, 00:38:04,VALID,917.351,VALID,0,VALID,96.7411,VALID,0,VALID,19.2168,VALID,149,VALID,0.176563,
2011-02-06, 00:39:04,VALID,917.38,VALID,0,VALID,96.7335,VALID,0,VALID,19.2363,VALID,149,VALID,0,
2011-02-06, 00:40:04,VALID,917.369,VALID,0,VALID,96.764,VALID,0,VALID,19.2348,VALID,149,VALID,0.171094,
2011-02-06, 00:41:04,VALID,917.346,VALID,0,VALID,96.7411,VALID,0,VALID,19.2153,VALID,149,VALID,0.321094,
2011-02-06, 00:42:04,VALID,917.348,VALID,0,VALID,96.7411,VALID,0,VALID,19.2348,VALID,149,VALID,0,
2011-02-06, 00:43:04,VALID,917.358,VALID,0,VALID,96.7335,VALID,0,VALID,19.2348,VALID,149,VALID,0,
2011-02-06, 00:44:04,VALID,917.377,VALID,0,VALID,96.7411,VALID,0,VALID,19.2153,VALID,149,VALID,0,
2011-02-06, 00:45:04,VALID,917.341,VALID,0,VALID,96.7564,VALID,0,VALID,19.1944,VALID,149,VALID,0.0175781,
2011-02-06, 00:46:04,VALID,917.333,VALID,0,VALID,96.7183,VALID,0,VALID,19.2363,VALID,149,VALID,0,
2011-02-06, 00:47:04,VALID,917.344,VALID,0,VALID,96.7259,VALID,0,VALID,19.2153,VALID,149,VALID,0,
2011-02-06, 00:48:04,VALID,917.353,VALID,0,VALID,96.7335,VALID,0,VALID,19.2377,VALID,149,VALID,0,
2011-02-06, 00:49:04,VALID,917.349,VALID,0,VALID,96.7259,VALID,0,VALID,19.1344,VALID,149,VALID,0,
2011-02-06, 00:50:04,VALID,917.363,VALID,0,VALID,96.7259,VALID,0,VALID,19.1539,VALID,149,VALID,0.388672,
2011-02-06, 00:51:04,VALID,917.317,VALID,0,VALID,96.7107,VALID,0,VALID,19.1583,VALID,149,VALID,0.607813,
2011-02-06, 00:52:04,VALID,917.338,VALID,0,VALID,96.7259,VALID,0,VALID,19.2002,VALID,149,VALID,0.722266,
2011-02-06, 00:53:04,VALID,917.319,VALID,0,VALID,96.7411,VALID,0,VALID,19.1164,VALID,149,VALID,0.665625,
2011-02-06, 00:54:04,VALID,917.31,VALID,0,VALID,96.7335,VALID,0,VALID,19.1359,VALID,149,VALID,0.693359,
2011-02-06, 00:55:04,VALID,917.304,VALID,0,VALID,96.7107,VALID,0,VALID,19.1373,VALID,149,VALID,0.516406,
2011-02-06, 00:56:04,VALID,917.275,VALID,0,VALID,96.7411,VALID,0,VALID,19.1778,VALID,149,VALID,0.605078,
2011-02-06, 00:57:04,VALID,917.25,VALID,0,VALID,96.7564,VALID,0,VALID,19.1778,VALID,149,VALID,0.339453,
2011-02-06, 00:58:04,VALID,917.261,VALID,0,VALID,96.7259,VALID,0,VALID,19.1973,VALID,149,VALID,0.23125,
2011-02-06, 00:59:04,VALID,917.231,VALID,0,VALID,96.7335,VALID,0,VALID,19.1763,VALID,149,VALID,0.0179687,
2011-02-06, 01:00:04,VALID,917.273,VALID,0,VALID,96.7107,VALID,0,VALID,19.1958,VALID,149,VALID,0.203906,
2011-02-06, 01:01:04,VALID,917.269,VALID,0,VALID,96.7259,VALID,0,VALID,19.1958,VALID,149,VALID,0.021875,
2011-02-06, 01:02:04,VALID,917.246,VALID,0,VALID,96.7564,VALID,0,VALID,19.2348,VALID,149,VALID,0,
2011-02-06, 01:03:04,VALID,917.226,VALID,0,VALID,96.7107,VALID,0,VALID,19.2543,VALID,149,VALID,0,
2011-02-06, 01:04:04,VALID,917.279,VALID,0,VALID,96.7107,VALID,0,VALID,19.2543,VALID,149,VALID,0,
2011-02-06, 01:05:04,VALID,917.239,VALID,0,VALID,96.6725,VALID,0,VALID,19.2753,VALID,149,VALID,0,
2011-02-06, 01:06:04,VALID,917.214,VALID,0,VALID,96.6725,VALID,0,VALID,19.2753,VALID,149,VALID,0,
2011-02-06, 01:07:04,VALID,917.216,VALID,0,VALID,96.6573,VALID,0,VALID,19.2738,VALID,149,VALID,0.107422,
2011-02-06, 01:08:04,VALID,917.185,VALID,0,VALID,96.6039,VALID,0,VALID,19.2738,VALID,149,VALID,0.528906,
2011-02-06, 01:09:04,VALID,917.186,VALID,0,VALID,96.6039,VALID,0,VALID,19.2528,VALID,149,VALID,0.546484,
2011-02-06, 01:10:04,VALID,917.183,VALID,0,VALID,96.6039,VALID,0,VALID,19.2543,VALID,149,VALID,0.792969,
2011-02-06, 01:11:04,VALID,917.182,VALID,0,VALID,96.5429,VALID,0,VALID,19.2753,VALID,149,VALID,0.722656,
2011-02-06, 01:12:04,VALID,917.178,VALID,0,VALID,96.5429,VALID,0,VALID,19.2153,VALID,149,VALID,0.970312,
2011-02-06, 01:13:04,VALID,917.177,VALID,0,VALID,96.4819,VALID,0,VALID,19.2153,VALID,149,VALID,0.851953,
2011-02-06, 01:14:04,VALID,917.159,VALID,0,VALID,96.4515,VALID,0,VALID,19.2168,VALID,149,VALID,0.883594,
2011-02-06, 01:15:04,VALID,917.154,VALID,0,VALID,96.4438,VALID,0,VALID,19.1944,VALID,149,VALID,0.608203,
2011-02-06, 01:16:04,VALID,917.148,VALID,0,VALID,96.4286,VALID,0,VALID,19.1973,VALID,149,VALID,0.881641,
2011-02-06, 01:17:04,VALID,917.118,VALID,0,VALID,96.4057,VALID,0,VALID,19.1763,VALID,149,VALID,0.857422,
2011-02-06, 01:18:04,VALID,917.082,VALID,0,VALID,96.3829,VALID,0,VALID,19.1763,VALID,149,VALID,0.889844,
2011-02-06, 01:19:04,VALID,917.077,VALID,0,VALID,96.3752,VALID,0,VALID,19.1973,VALID,149,VALID,1.38437,
2011-02-06, 01:20:04,VALID,917.055,VALID,0,VALID,96.4057,VALID,0,VALID,19.1568,VALID,149,VALID,0.875391,
2011-02-06, 01:21:04,VALID,917.059,VALID,0,VALID,96.3981,VALID,0,VALID,19.1763,VALID,149,VALID,0.492969,
2011-02-06, 01:22:04,VALID,917.055,VALID,0,VALID,96.3905,VALID,0,VALID,19.1568,VALID,149,VALID,0.704687,
2011-02-06, 01:23:04,VALID,917.001,VALID,0,VALID,96.3829,VALID,0,VALID,19.1763,VALID,149,VALID,0.855859,
2011-02-06, 01:24:04,VALID,917.057,VALID,0,VALID,96.3752,VALID,0,VALID,19.1973,VALID,148,VALID,1.01641,
2011-02-06, 01:25:04,VALID,917.036,VALID,0,VALID,96.3371,VALID,0,VALID,19.1568,VALID,148,VALID,0.997656,
2011-02-06, 01:26:04,VALID,917.065,VALID,0,VALID,96.3142,VALID,0,VALID,19.1763,VALID,148,VALID,0.809375,
2011-02-06, 01:27:04,VALID,917.04,VALID,0,VALID,96.3524,VALID,0,VALID,19.1568,VALID,148,VALID,0.783594,
2011-02-06, 01:28:04,VALID,917.04,VALID,0,VALID,96.3752,VALID,0,VALID,19.1568,VALID,145,VALID,1.38984,
2011-02-06, 01:29:04,VALID,916.981,VALID,0,VALID,96.3981,VALID,0,VALID,19.1373,VALID,145,VALID,1.08516,
2011-02-06, 01:30:04,VALID,916.996,VALID,0,VALID,96.4286,VALID,0,VALID,19.1373,VALID,145,VALID,1.12266,
2011-02-06, 01:31:04,VALID,916.938,VALID,0,VALID,96.4591,VALID,0,VALID,19.0983,VALID,145,VALID,0.926562,
2011-02-06, 01:32:04,VALID,916.952,VALID,0,VALID,96.4743,VALID,0,VALID,19.0579,VALID,145,VALID,1.18906,
2011-02-06, 01:33:04,VALID,916.917,VALID,0,VALID,96.5429,VALID,0,VALID,19.0593,VALID,145,VALID,0.976953,
2011-02-06, 01:34:04,VALID,916.884,VALID,0,VALID,96.5811,VALID,0,VALID,19.0803,VALID,133,VALID,1.35352,
2011-02-06, 01:35:04,VALID,916.907,VALID,0,VALID,96.6039,VALID,0,VALID,19.0593,VALID,142,VALID,1.24766,
2011-02-06, 01:36:04,VALID,916.894,VALID,0,VALID,96.6192,VALID,0,VALID,19.0593,VALID,142,VALID,0.849219,
2011-02-06, 01:37:04,VALID,916.875,VALID,0,VALID,96.642,VALID,0,VALID,19.0398,VALID,142,VALID,1.05898,
2011-02-06, 01:38:04,VALID,916.892,VALID,0,VALID,96.6573,VALID,0,VALID,19.0384,VALID,142,VALID,0.720703,
2011-02-06, 01:39:04,VALID,916.876,VALID,0,VALID,96.6497,VALID,0,VALID,19.0398,VALID,142,VALID,0.807031,
2011-02-06, 01:40:04,VALID,916.84,VALID,0,VALID,96.6573,VALID,0,VALID,19.0398,VALID,142,VALID,1.12812,
2011-02-06, 01:41:04,VALID,916.847,VALID,0,VALID,96.6725,VALID,0,VALID,19.0398,VALID,142,VALID,1.64063,
2011-02-06, 01:42:04,VALID,916.824,VALID,0,VALID,96.7107,VALID,0,VALID,19.0398,VALID,142,VALID,1.12812,
2011-02-06, 01:43:04,VALID,916.808,VALID,0,VALID,96.7335,VALID,0,VALID,19.0398,VALID,142,VALID,0.926172,
2011-02-06, 01:44:04,VALID,916.767,VALID,0,VALID,96.7411,VALID,0,VALID,19.0398,VALID,142,VALID,0.830469,
2011-02-06, 01:45:04,VALID,916.794,VALID,0,VALID,96.7488,VALID,0,VALID,19.0398,VALID,142,VALID,0.786328,
2011-02-06, 01:46:04,VALID,916.766,VALID,0,VALID,96.7411,VALID,0,VALID,19.0203,VALID,142,VALID,1.18984,
2011-02-06, 01:47:04,VALID,916.769,VALID,0,VALID,96.764,VALID,0,VALID,18.9994,VALID,142,VALID,1.03516,
2011-02-06, 01:48:04,VALID,916.761,VALID,0,VALID,96.7793,VALID,0,VALID,19.0203,VALID,142,VALID,1.15742,
2011-02-06, 01:49:04,VALID,916.743,VALID,0,VALID,96.7869,VALID,0,VALID,19.0203,VALID,142,VALID,0.964063,
2011-02-06, 01:50:04,VALID,916.745,VALID,0,VALID,96.7869,VALID,0,VALID,19.0203,VALID,142,VALID,0.941016,
2011-02-06, 01:51:04,VALID,916.743,VALID,0,VALID,96.8021,VALID,0,VALID,19.0203,VALID,142,VALID,0.857031,
2011-02-06, 01:52:04,VALID,916.73,VALID,0,VALID,96.7869,VALID,0,VALID,19.0008,VALID,143,VALID,0.721484,
2011-02-06, 01:53:04,VALID,916.751,VALID,0,VALID,96.8021,VALID,0,VALID,19.0203,VALID,143,VALID,0.860156,
2011-02-06, 01:54:04,VALID,916.752,VALID,0,VALID,96.825,VALID,0,VALID,19.0398,VALID,142,VALID,0.787109,
2011-02-06, 01:55:04,VALID,916.726,VALID,0,VALID,96.8098,VALID,0,VALID,19.0203,VALID,143,VALID,0.806641,
2011-02-06, 01:56:04,VALID,916.731,VALID,0,VALID,96.825,VALID,0,VALID,19.0203,VALID,143,VALID,0.870313,
2011-02-06, 01:57:04,VALID,916.741,VALID,0,VALID,96.825,VALID,0,VALID,19.0398,VALID,143,VALID,0.833984,
2011-02-06, 01:58:04,VALID,916.731,VALID,0,VALID,96.8403,VALID,0,VALID,19.0398,VALID,143,VALID,0.665625,
2011-02-06, 01:59:04,VALID,916.761,VALID,0,VALID,96.8479,VALID,0,VALID,19.0593,VALID,143,VALID,0.670313,
2011-02-06, 02:00:04,VALID,916.745,VALID,0,VALID,96.8403,VALID,0,VALID,19.0593,VALID,143,VALID,0.723437,
2011-02-06, 02:01:04,VALID,916.772,VALID,0,VALID,96.8479,VALID,0,VALID,19.0593,VALID,143,VALID,0.893359,
2011-02-06, 02:02:04,VALID,916.776,VALID,0,VALID,96.8707,VALID,0,VALID,19.0983,VALID,143,VALID,0.684766,
2011-02-06, 02:03:04,VALID,916.776,VALID,0,VALID,96.9012,VALID,0,VALID,19.1178,VALID,143,VALID,0.693359,
2011-02-06, 02:04:04,VALID,916.806,VALID,0,VALID,96.9089,VALID,0,VALID,19.1373,VALID,143,VALID,0.984766,
2011-02-06, 02:05:04,VALID,916.763,VALID,0,VALID,96.886,VALID,0.107441,VALID,19.1359,VALID,143,VALID,0.809766,
2011-02-06, 02:06:04,VALID,916.81,VALID,0,VALID,96.8936,VALID,0,VALID,19.1359,VALID,143,VALID,0.729688,
2011-02-06, 02:07:04,VALID,916.724,VALID,0,VALID,96.8631,VALID,0.107441,VALID,19.1359,VALID,143,VALID,0.509375,
2011-02-06, 02:08:04,VALID,916.756,VALID,0,VALID,96.9012,VALID,0.107441,VALID,19.1554,VALID,143,VALID,0.553906,
2011-02-06, 02:09:04,VALID,916.739,VALID,0,VALID,96.8784,VALID,0,VALID,19.1749,VALID,143,VALID,0.887891,
2011-02-06, 02:10:04,VALID,916.73,VALID,0,VALID,96.8326,VALID,0,VALID,19.1749,VALID,143,VALID,0.536328,
2011-02-06, 02:11:04,VALID,916.724,VALID,0,VALID,96.8098,VALID,0,VALID,19.1749,VALID,143,VALID,0.704297,
2011-02-06, 02:12:04,VALID,916.728,VALID,0,VALID,96.7716,VALID,0,VALID,19.1749,VALID,143,VALID,0.755469,
2011-02-06, 02:13:04,VALID,916.714,VALID,0,VALID,96.8021,VALID,0,VALID,19.1958,VALID,143,VALID,0.831641,
2011-02-06, 02:14:04,VALID,916.712,VALID,0,VALID,96.7716,VALID,0,VALID,19.1944,VALID,143,VALID,0.662109,
2011-02-06, 02:15:04,VALID,916.71,VALID,0,VALID,96.7107,VALID,0.107441,VALID,19.1944,VALID,143,VALID,0.464844,
2011-02-06, 02:16:04,VALID,916.686,VALID,0,VALID,96.7107,VALID,0,VALID,19.2334,VALID,143,VALID,0.620313,
2011-02-06, 02:17:04,VALID,916.665,VALID,0,VALID,96.6878,VALID,0.107441,VALID,19.2334,VALID,143,VALID,0.564844,
2011-02-06, 02:18:04,VALID,916.653,VALID,0,VALID,96.6192,VALID,0,VALID,19.2348,VALID,143,VALID,0.933203,
2011-02-06, 02:19:04,VALID,916.647,VALID,0,VALID,96.5734,VALID,0,VALID,19.2139,VALID,143,VALID,0.998047,
2011-02-06, 02:20:04,VALID,916.67,VALID,0,VALID,96.5201,VALID,0.107441,VALID,19.2139,VALID,143,VALID,0.809375,
2011-02-06, 02:21:04,VALID,916.661,VALID,0,VALID,96.4743,VALID,0.107441,VALID,19.2334,VALID,143,VALID,0.819922,
2011-02-06, 02:22:04,VALID,916.665,VALID,0,VALID,96.421,VALID,0,VALID,19.2543,VALID,143,VALID,0.855078,
2011-02-06, 02:23:04,VALID,916.639,VALID,0,VALID,96.3676,VALID,0.107441,VALID,19.2139,VALID,143,VALID,0.539453,
2011-02-06, 02:24:04,VALID,916.613,VALID,0,VALID,96.3142,VALID,0.107441,VALID,19.2139,VALID,143,VALID,0.717969,
2011-02-06, 02:25:04,VALID,916.587,VALID,0,VALID,96.2456,VALID,0,VALID,19.2139,VALID,143,VALID,0.769531,
2011-02-06, 02:26:04,VALID,916.578,VALID,0,VALID,96.2228,VALID,0.107441,VALID,19.2348,VALID,143,VALID,0.693359,
2011-02-06, 02:27:04,VALID,916.598,VALID,0,VALID,96.177,VALID,0,VALID,19.1944,VALID,143,VALID,0.990625,
2011-02-06, 02:28:04,VALID,916.574,VALID,0,VALID,96.1541,VALID,0,VALID,19.1944,VALID,143,VALID,0.930859,
2011-02-06, 02:29:04,VALID,916.56,VALID,0,VALID,96.1618,VALID,0.107441,VALID,19.1749,VALID,143,VALID,0.946484,
2011-02-06, 02:30:04,VALID,916.551,VALID,0,VALID,96.177,VALID,0,VALID,19.1749,VALID,143,VALID,0.825781,
2011-02-06, 02:31:04,VALID,916.56,VALID,0,VALID,96.2228,VALID,0,VALID,19.2153,VALID,143,VALID,1.18945,
2011-02-06, 02:32:04,VALID,916.549,VALID,0,VALID,96.2609,VALID,0,VALID,19.1958,VALID,143,VALID,0.770312,
2011-02-06, 02:33:04,VALID,916.529,VALID,0,VALID,96.2914,VALID,0,VALID,19.1958,VALID,143,VALID,0.648438,
2011-02-06, 02:34:04,VALID,916.54,VALID,0,VALID,96.3371,VALID,0,VALID,19.1958,VALID,143,VALID,0.446484,
2011-02-06, 02:35:04,VALID,916.523,VALID,0,VALID,96.3295,VALID,0,VALID,19.2168,VALID,143,VALID,0.966406,
2011-02-06, 02:36:04,VALID,916.515,VALID,0,VALID,96.3447,VALID,0,VALID,19.1763,VALID,143,VALID,0.482031,
2011-02-06, 02:37:04,VALID,916.502,VALID,0,VALID,96.3676,VALID,0,VALID,19.1973,VALID,143,VALID,0.429688,
2011-02-06, 02:38:04,VALID,916.498,VALID,0,VALID,96.4057,VALID,0,VALID,19.1763,VALID,143,VALID,0.691406,
2011-02-06, 02:39:04,VALID,916.49,VALID,0,VALID,96.4438,VALID,0,VALID,19.1973,VALID,143,VALID,0.489453,
2011-02-06, 02:40:04,VALID,916.516,VALID,0,VALID,96.4819,VALID,0,VALID,19.1973,VALID,143,VALID,0.479297,
2011-02-06, 02:41:04,VALID,916.474,VALID,0,VALID,96.4972,VALID,0,VALID,19.1568,VALID,143,VALID,0.773047,
2011-02-06, 02:42:04,VALID,916.499,VALID,0,VALID,96.5201,VALID,0,VALID,19.1373,VALID,143,VALID,0.742188,
2011-02-06, 02:43:04,VALID,916.505,VALID,0,VALID,96.5506,VALID,0,VALID,19.1583,VALID,143,VALID,0.663281,
2011-02-06, 02:44:04,VALID,916.474,VALID,0,VALID,96.5658,VALID,0,VALID,19.1373,VALID,143,VALID,0.782812,
2011-02-06, 02:45:04,VALID,916.464,VALID,0,VALID,96.6192,VALID,0,VALID,19.1373,VALID,143,VALID,0.857813,
2011-02-06, 02:46:04,VALID,916.457,VALID,0,VALID,96.6573,VALID,0,VALID,19.1583,VALID,143,VALID,0.888672,
2011-02-06, 02:47:04,VALID,916.463,VALID,0,VALID,96.6802,VALID,0,VALID,19.1388,VALID,143,VALID,0.846094,
2011-02-06, 02:48:04,VALID,916.451,VALID,0,VALID,96.703,VALID,0,VALID,19.1178,VALID,143,VALID,1.04453,
2011-02-06, 02:49:04,VALID,916.437,VALID,0,VALID,96.6878,VALID,0,VALID,19.1583,VALID,143,VALID,1.18594,
2011-02-06, 02:50:04,VALID,916.435,VALID,0,VALID,96.703,VALID,0,VALID,19.1568,VALID,143,VALID,1.20469,
2011-02-06, 02:51:04,VALID,916.411,VALID,0,VALID,96.7259,VALID,0,VALID,19.1568,VALID,143,VALID,1.40703,
2011-02-06, 02:52:04,VALID,916.39,VALID,0,VALID,96.6954,VALID,0,VALID,19.2182,VALID,143,VALID,0.882813,
2011-02-06, 02:53:04,VALID,916.368,VALID,0,VALID,96.703,VALID,0,VALID,19.1763,VALID,143,VALID,0.952734,
2011-02-06, 02:54:04,VALID,916.38,VALID,0,VALID,96.6573,VALID,0,VALID,19.1763,VALID,143,VALID,1.27422,
2011-02-06, 02:55:04,VALID,916.348,VALID,0,VALID,96.642,VALID,0,VALID,19.1958,VALID,142,VALID,1.02383,
2011-02-06, 02:56:04,VALID,916.316,VALID,0,VALID,96.6115,VALID,0,VALID,19.1958,VALID,142,VALID,1.08672,
2011-02-06, 02:57:04,VALID,916.298,VALID,0,VALID,96.5658,VALID,0,VALID,19.2168,VALID,142,VALID,1.22969,
2011-02-06, 02:58:04,VALID,916.287,VALID,0,VALID,96.5506,VALID,0,VALID,19.1958,VALID,142,VALID,1.075,
2011-02-06, 02:59:04,VALID,916.282,VALID,0,VALID,96.5201,VALID,0,VALID,19.2153,VALID,141,VALID,0.874219,
2011-02-06, 03:00:04,VALID,916.279,VALID,0,VALID,96.4667,VALID,0,VALID,19.2168,VALID,141,VALID,1.03867,
2011-02-06, 03:01:04,VALID,916.259,VALID,0,VALID,96.4438,VALID,0,VALID,19.2168,VALID,141,VALID,1.10156,
2011-02-06, 03:02:04,VALID,916.244,VALID,0,VALID,96.4133,VALID,0,VALID,19.2363,VALID,141,VALID,0.935156,
2011-02-06, 03:03:04,VALID,916.235,VALID,0,VALID,96.36,VALID,0,VALID,19.2153,VALID,141,VALID,0.746094,
2011-02-06, 03:04:04,VALID,916.242,VALID,0,VALID,96.3447,VALID,0,VALID,19.2153,VALID,140,VALID,0.724219,
2011-02-06, 03:05:04,VALID,916.228,VALID,0,VALID,96.2837,VALID,0,VALID,19.1958,VALID,140,VALID,1.15937,
2011-02-06, 03:06:04,VALID,916.217,VALID,0,VALID,96.2837,VALID,0,VALID,19.1763,VALID,140,VALID,0.757031,
2011-02-06, 03:07:04,VALID,916.201,VALID,0,VALID,96.2837,VALID,0,VALID,19.1763,VALID,140,VALID,0.936328,
2011-02-06, 03:08:04,VALID,916.182,VALID,0,VALID,96.2837,VALID,0,VALID,19.1568,VALID,140,VALID,0.678906,
2011-02-06, 03:09:04,VALID,916.192,VALID,0,VALID,96.2609,VALID,0,VALID,19.1763,VALID,140,VALID,0.727734,
2011-02-06, 03:10:04,VALID,916.148,VALID,0,VALID,96.2228,VALID,0,VALID,19.1778,VALID,140,VALID,1.15508,
2011-02-06, 03:11:04,VALID,916.164,VALID,0,VALID,96.2533,VALID,0,VALID,19.1778,VALID,140,VALID,0.849219,
2011-02-06, 03:12:04,VALID,916.142,VALID,0,VALID,96.2533,VALID,0,VALID,19.1568,VALID,139,VALID,0.817969,
2011-02-06, 03:13:04,VALID,916.122,VALID,0,VALID,96.2456,VALID,0,VALID,19.1763,VALID,139,VALID,0.611719,
2011-02-06, 03:14:04,VALID,916.062,VALID,0,VALID,96.238,VALID,0,VALID,19.1568,VALID,139,VALID,0.742188,
2011-02-06, 03:15:04,VALID,916.078,VALID,0,VALID,96.3066,VALID,0,VALID,19.1973,VALID,139,VALID,0.656641,
2011-02-06, 03:16:04,VALID,916.058,VALID,0,VALID,96.2837,VALID,0,VALID,19.1568,VALID,139,VALID,1.00742,
2011-02-06, 03:17:04,VALID,916.032,VALID,0,VALID,96.299,VALID,0,VALID,19.1568,VALID,139,VALID,1.00664,
2011-02-06, 03:18:04,VALID,916.012,VALID,0,VALID,96.3295,VALID,0,VALID,19.1583,VALID,139,VALID,0.823828,
2011-02-06, 03:19:04,VALID,916.031,VALID,0,VALID,96.3447,VALID,0,VALID,19.1583,VALID,139,VALID,0.425391,
2011-02-06, 03:20:04,VALID,916.019,VALID,0,VALID,96.3676,VALID,0,VALID,19.1373,VALID,139,VALID,0.575781,
2011-02-06, 03:21:04,VALID,916.015,VALID,0,VALID,96.3752,VALID,0,VALID,19.1373,VALID,139,VALID,0.922656,
2011-02-06, 03:22:04,VALID,915.972,VALID,0,VALID,96.4133,VALID,0,VALID,19.1583,VALID,139,VALID,0.698828,
2011-02-06, 03:23:04,VALID,915.942,VALID,0,VALID,96.3981,VALID,0,VALID,19.1373,VALID,139,VALID,0.722266,
2011-02-06, 03:24:04,VALID,915.936,VALID,0,VALID,96.421,VALID,0,VALID,19.1373,VALID,139,VALID,0.560547,
2011-02-06, 03:25:04,VALID,915.945,VALID,0,VALID,96.4362,VALID,0,VALID,19.1568,VALID,139,VALID,0.876953,
2011-02-06, 03:26:04,VALID,915.945,VALID,0,VALID,96.4133,VALID,0,VALID,19.1373,VALID,139,VALID,0.984766,
2011-02-06, 03:27:04,VALID,915.934,VALID,0,VALID,96.4362,VALID,0,VALID,19.1373,VALID,139,VALID,0.678516,
2011-02-06, 03:28:04,VALID,915.915,VALID,0,VALID,96.4362,VALID,0,VALID,19.1583,VALID,139,VALID,0.596094,
2011-02-06, 03:29:04,VALID,915.911,VALID,0,VALID,96.4133,VALID,0,VALID,19.1373,VALID,139,VALID,0.532031,
2011-02-06, 03:30:04,VALID,915.918,VALID,0,VALID,96.421,VALID,0,VALID,19.1373,VALID,139,VALID,0.696875,
2011-02-06, 03:31:04,VALID,915.901,VALID,0,VALID,96.421,VALID,0,VALID,19.1568,VALID,139,VALID,0.419922,
2011-02-06, 03:32:04,VALID,915.91,VALID,0,VALID,96.3981,VALID,0,VALID,19.1763,VALID,139,VALID,0.616797,
2011-02-06, 03:33:04,VALID,915.917,VALID,0,VALID,96.4133,VALID,0.107441,VALID,19.1749,VALID,139,VALID,0.761719,
2011-02-06, 03:34:04,VALID,915.924,VALID,0,VALID,96.3905,VALID,0,VALID,19.1749,VALID,139,VALID,0.618359,
2011-02-06, 03:35:04,VALID,915.891,VALID,0,VALID,96.3829,VALID,0,VALID,19.1958,VALID,139,VALID,0.542578,
2011-02-06, 03:36:04,VALID,915.902,VALID,0,VALID,96.3447,VALID,0,VALID,19.1958,VALID,139,VALID,0.458203,
2011-02-06, 03:37:04,VALID,915.943,VALID,0,VALID,96.3676,VALID,0,VALID,19.1944,VALID,139,VALID,0.1,
2011-02-06, 03:38:04,VALID,915.916,VALID,0,VALID,96.3447,VALID,0.107441,VALID,19.2153,VALID,139,VALID,0.333984,
2011-02-06, 03:39:04,VALID,915.934,VALID,0,VALID,96.3142,VALID,0.107441,VALID,19.2139,VALID,139,VALID,0.222266,
2011-02-06, 03:40:04,VALID,915.905,VALID,0,VALID,96.3905,VALID,0.107441,VALID,19.2334,VALID,139,VALID,0.502344,
2011-02-06, 03:41:04,VALID,915.967,VALID,0,VALID,96.3219,VALID,0.107441,VALID,19.2334,VALID,139,VALID,0.665234,
2011-02-06, 03:42:04,VALID,915.945,VALID,0,VALID,96.2228,VALID,0.107441,VALID,19.2139,VALID,139,VALID,0.673047,
2011-02-06, 03:43:04,VALID,915.912,VALID,0,VALID,96.1541,VALID,0,VALID,19.1763,VALID,139,VALID,0.414844,
2011-02-06, 03:44:04,VALID,915.915,VALID,0,VALID,96.0627,VALID,0,VALID,19.1554,VALID,139,VALID,0.351172,